World > North America > United States > Texas > Strawn  

Strawn, TX Hourly Weather Updates

Feedback E-mail the Weather

Quick Clicks

Strawn, TX Weather Maps

°F °C°F °C
Strawn Weather Map
UTC Time: 7/21/2024, 22:56
Your Time:

Strawn, TX Regional Weather

Expires:202407212300;;066825
ASUS44 KFWD 212215
RWRTX 
NORTH TEXAS HOURLY WEATHER ROUNDUP
NATIONAL WEATHER SERVICE FORT WORTH TX
500 PM CDT SUN JUL 21 2024

NOTE: "FAIR" INDICATES FEW OR NO CLOUDS BELOW 12,000 FEET WITH NO
SIGNIFICANT WEATHER AND/OR OBSTRUCTIONS TO VISIBILITY.


TXZ083>090-098>101-113>116-127>130-139>142-154-155-212300-
WESTERN NORTH TEXAS
  
CITY           SKY/WX    TMP DP  RH WIND       PRES   REMARKS
WICHITA FALLS  CLOUDY    89  69  51 NE15      29.95S HX  93           
WF-KICKAPOO    FAIR      89  72  56 E5        29.97R HX  95           
VERNON         FAIR      91  63  40 N10G17    30.00S HX  91           
ABILENE        PTSUNNY   96  62  32 NE9       29.98S HX  97           
ABILENE-DYESS  FAIR      95  57  28 N10G24    29.96R HAZE    HX  94   
BRECKENRIDGE   FAIR      92  62  37 MISG      29.97S HAZE    HX  92   
CISCO            N/A     88  72  58 SE13      29.97S HAZE    HX  94   
EASTLAND       FAIR      89  70  54 E10G18    29.97S HX  94           
RANGER         PTSUNNY  N/A N/A N/A E8        29.97S                  
MINERAL WELLS  FAIR      85  70  60 E8        29.94F                  
STEPHENVILLE   FAIR      89  70  53 SE5       30.00S HX  94           
COMANCHE       FAIR      89  70  53 E9        30.00R HX  94           
COLEMAN        FAIR      90  66  45 MISG      30.00R HX  92           
BRADY          CLOUDY    77  68  73 E12G23    30.03R                  
SAN SABA       FAIR      75  71  86 S13G21    30.04S                  
$$


SKY/WX - Weather  TMP - Temperature  DP - Dew Point  RH - Humidity
WIND - Wind Direction/Speed PRES - Barometric Pressure VSB - Visibility
WCI - Wind Chill Index E13G22 Wind - East Wind 13 mph/Gusts of 22 mph

Trending Headlines

Trending Entertainment Headlines

Strawn Radar Loop

Use the map search tool if you want to place a location marker on the radar map...

Strawn Quick Facts

National Two Day Weather Forecast


E-mail the Strawn Weather Forecast

Voice your opinion or tell us about page issues...